Location: Bieg
(49.3499°N, 10.3835°E)
Time: 00:03:36
(UTC+00:00)

COSMOS 2428 - Pass Details

Date: 23 May 2024
Orbit: 844 x 856 km, 70.9° (Epoch: 15 June)

Event Time Altitude Azimuth Distance (km) Brightness Sun altitude
Rises 01:57:01 0° 333° (NNW) 3,415 6.2 -11.3°
Reaches altitude 10° 01:59:37 10° 341° (NNW) 2,477 5.6 -11.1°
Maximum altitude 02:05:00 42° 52° (NE) 1,186 4.1 -10.5°
Drops below altitude 10° 02:10:23 10° 123° (ESE) 2,469 5.2 -9.9°
Sets 02:12:57 0° 130° (SE) 3,403 5.9 -9.7°
